Weather History for Dallas/Ft Worth, TX

Change the Weather History Date:

Tuesday, October 15, 2013

  Actual Average Record
Temperature  
Mean Temperature 66 °F 68 °F  
Max Temperature 78 °F 79 °F 92 °F (1999)
Min Temperature 54 °F 57 °F 42 °F (1914)
Degree Days  
Heating Degree Days 0 2  
Month to date heating degree days 1 17  
Since 1 July heating degree days 1 23  
Cooling Degree Days 1 5  
Month to date cooling degree days 133 93  
Year to date cooling degree days 2893 2670  
Growing Degree Days 16 (Base 50)    
Moisture  
Dew Point 63 °F    
Average Humidity 88    
Maximum Humidity 93    
Minimum Humidity 82    
Precipitation  
Precipitation 0.61 in 0.15 in 1.93 in (2007)
Month to date precipitation 1.49 1.79  
Year to date precipitation 22.88 28.45  
Snow  
Snow 0.00 in 0.00 in 0.00 in ()
Month to date snowfall 0.0 0.0  
Since 1 July snowfall 0.0 0.0  
Since 1 September snowfall 0.0 0.0  
Snow Depth 0.00 in    
Sea Level Pressure  
Sea Level Pressure 29.95 in    
Wind  
Wind Speed 14 mph (NW)    
Max Wind Speed 23 mph    
Max Gust Speed 29 mph    
Visibility 9 miles    
Events Rain    
T = Trace of Precipitation, MM = Missing Value Source: NWS Daily Summary

Daily Weather History Graph

Daily Weather History Graph

Search for Another Location

Airport:

Trip Planner

Search our weather history database for the weather conditions in past years. The results will help you decide how hot, cold, wet, or windy it might be!

Date:

Astronomy

Oct. 15, 2013 Rise Set
Actual Time 7:32 AM CDT 6:54 PM CDT
Civil Twilight 7:07 AM CDT 7:19 PM CDT
Nautical Twilight 6:38 AM CDT 7:48 PM CDT
Astronomical Twilight 6:10 AM CDT 8:16 PM CDT
Moon 4:52 PM CDT (10/15) 4:06 AM CDT (10/15)
Length of Visible Light 12h 11m
Length of Day
11h 22m
Waxing Gibbous, 88% of the Moon is Illuminated
Oct 15
Waxing Gibbous
Oct 18
Full
Oct 26
Last Quarter
Nov 3
New
Nov 9
First Quarter

Hourly Weather History & Observations

Time (CDT) Temp. Dew Point Humidity Pressure Visibility Wind Dir Wind Speed Gust Speed Precip Events Conditions
12:53 AM 73.0 °F 69.1 °F 87% 29.91 in 10.0 mi South 9.2 mph - N/A   Mostly Cloudy
1:53 AM 73.9 °F 69.1 °F 85% 29.90 in 10.0 mi South 13.8 mph - N/A   Overcast
2:53 AM 73.0 °F 69.1 °F 87% 29.89 in 10.0 mi South 13.8 mph - N/A   Mostly Cloudy
3:50 AM 73.4 °F 69.8 °F 88% 29.91 in 10.0 mi South 15.0 mph - N/A   Overcast
3:53 AM 73.0 °F 69.1 °F 87% 29.89 in 10.0 mi South 12.7 mph - N/A   Overcast
4:53 AM 73.0 °F 69.1 °F 87% 29.89 in 10.0 mi South 10.4 mph - N/A   Overcast
5:53 AM 73.0 °F 69.1 °F 87% 29.88 in 10.0 mi South 10.4 mph - N/A   Overcast
6:44 AM 73.0 °F 69.1 °F 87% 29.91 in 10.0 mi South 9.2 mph - N/A   Mostly Cloudy
6:53 AM 73.0 °F 69.1 °F 87% 29.89 in 10.0 mi South 13.8 mph - N/A   Mostly Cloudy
7:37 AM 73.0 °F 70.0 °F 90% 29.93 in 10.0 mi South 8.1 mph - N/A   Overcast
7:53 AM 73.0 °F 70.0 °F 90% 29.91 in 10.0 mi South 8.1 mph - 0.00 in Rain Light Rain
8:53 AM 73.9 °F 70.0 °F 87% 29.92 in 10.0 mi South 8.1 mph - 0.00 in   Overcast
9:53 AM 75.0 °F 70.0 °F 84% 29.93 in 10.0 mi South 11.5 mph - N/A   Overcast
10:11 AM 75.9 °F 70.0 °F 82% 29.96 in 10.0 mi SSW 12.7 mph - N/A   Overcast
10:34 AM 75.9 °F 70.0 °F 82% 29.97 in 10.0 mi SSW 13.8 mph - N/A   Mostly Cloudy
10:53 AM 75.9 °F 70.0 °F 82% 29.94 in 10.0 mi SW 10.4 mph - N/A   Overcast
11:53 AM 78.1 °F 71.1 °F 79% 29.93 in 10.0 mi West 10.4 mph - 0.00 in Rain Light Rain
11:58 AM 73.0 °F 66.9 °F 81% 29.95 in 10.0 mi North 20.7 mph 28.8 mph 0.00 in Rain Light Rain
12:14 PM 69.1 °F 64.9 °F 87% 29.96 in 10.0 mi North 21.9 mph - 0.00 in Rain Light Rain
12:37 PM 69.1 °F 64.0 °F 84% 29.95 in 10.0 mi North 20.7 mph - 0.00 in   Overcast
12:53 PM 68.0 °F 63.0 °F 84% 29.94 in 10.0 mi North 21.9 mph - 0.00 in Rain Light Rain
1:53 PM 66.0 °F 63.0 °F 90% 29.94 in 8.0 mi North 16.1 mph - 0.01 in Rain Light Rain
2:40 PM 64.0 °F 61.0 °F 90% 29.97 in 10.0 mi NNW 15.0 mph - 0.02 in Rain Light Rain
2:53 PM 63.0 °F 60.1 °F 90% 29.95 in 10.0 mi NNW 16.1 mph - 0.02 in Rain Light Rain
3:53 PM 61.0 °F 57.0 °F 87% 29.95 in 10.0 mi North 18.4 mph - 0.02 in Rain Light Rain
4:53 PM 60.1 °F 57.0 °F 90% 29.96 in 10.0 mi North 18.4 mph - 0.03 in   Overcast
5:53 PM 57.9 °F 55.0 °F 90% 29.97 in 5.0 mi North 13.8 mph - 0.01 in Rain Rain
6:53 PM 57.0 °F 54.0 °F 89% 29.98 in 6.0 mi North 16.1 mph - 0.02 in Rain Light Rain
7:53 PM 55.9 °F 53.1 °F 90% 30.00 in 4.0 mi North 16.1 mph - 0.11 in Rain Heavy Rain
8:01 PM 55.9 °F 53.1 °F 90% 30.02 in 6.0 mi North 15.0 mph - 0.01 in Rain Rain
8:53 PM 55.0 °F 53.1 °F 93% 30.04 in 4.0 mi North 16.1 mph - 0.08 in Rain Heavy Rain
9:28 PM 55.0 °F 52.0 °F 89% 30.04 in 6.0 mi NNE 16.1 mph - 0.12 in Rain Rain
9:53 PM 55.0 °F 52.0 °F 89% 30.04 in 6.0 mi North 12.7 mph - 0.16 in Rain Light Rain
10:53 PM 55.0 °F 51.1 °F 86% 30.05 in 6.0 mi North 15.0 mph - 0.05 in Rain Light Rain
11:05 PM 54.0 °F 51.1 °F 90% 30.07 in 8.0 mi North 13.8 mph - 0.01 in Rain Light Rain
11:43 PM 54.0 °F 51.1 °F 90% 30.05 in 8.0 mi North 11.5 mph - 0.06 in Rain Light Rain
11:53 PM 54.0 °F 51.1 °F 90% 30.03 in 7.0 mi NNE 12.7 mph - 0.07 in Rain Light Rain